TimeEDT,TemperatureF,Dew PointF,Humidity,Sea Level PressureIn,VisibilityMPH,Wind Direction,Wind SpeedMPH,Gust SpeedMPH,PrecipitationIn,Events,Conditions,WindDirDegrees,DateUTC
12:17 AM,60.8,53.6,77,29.85,10.0,WNW,4.6,-,N/A,,Mostly Cloudy,300,2013-06-14 04:17:00
12:37 AM,60.8,53.6,77,29.85,10.0,NW,6.9,-,N/A,,Overcast,320,2013-06-14 04:37:00
12:51 AM,60.1,53.1,78,29.84,10.0,NNW,5.8,-,N/A,,Overcast,330,2013-06-14 04:51:00
1:22 AM,59.0,53.6,82,29.86,10.0,NW,5.8,-,N/A,,Overcast,320,2013-06-14 05:22:00
1:39 AM,59.0,53.6,82,29.87,10.0,WNW,8.1,-,N/A,,Overcast,290,2013-06-14 05:39:00
1:51 AM,59.0,52.0,78,29.86,10.0,NW,6.9,-,N/A,,Overcast,310,2013-06-14 05:51:00
2:51 AM,59.0,53.1,81,29.86,10.0,NW,8.1,-,N/A,,Overcast,310,2013-06-14 06:51:00
3:51 AM,57.0,52.0,83,29.87,10.0,NW,6.9,-,N/A,,Scattered Clouds,310,2013-06-14 07:51:00
3:59 AM,57.2,51.8,82,29.89,10.0,NW,6.9,-,N/A,,Mostly Cloudy,320,2013-06-14 07:59:00
4:51 AM,57.0,52.0,83,29.89,10.0,NW,3.5,-,N/A,,Overcast,310,2013-06-14 08:51:00
5:09 AM,57.2,51.8,82,29.90,10.0,NW,4.6,-,N/A,,Overcast,320,2013-06-14 09:09:00
5:21 AM,57.2,51.8,82,29.90,10.0,NW,3.5,-,N/A,,Overcast,320,2013-06-14 09:21:00
5:51 AM,57.0,51.1,81,29.90,10.0,NNW,3.5,-,N/A,,Overcast,330,2013-06-14 09:51:00
6:01 AM,55.4,51.8,88,29.90,10.0,NW,3.5,-,N/A,,Mostly Cloudy,320,2013-06-14 10:01:00
6:51 AM,57.0,51.1,81,29.93,10.0,NNW,3.5,-,N/A,,Mostly Cloudy,340,2013-06-14 10:51:00
7:38 AM,57.2,51.8,82,29.94,10.0,Calm,Calm,-,N/A,,Overcast,0,2013-06-14 11:38:00
7:51 AM,57.9,52.0,81,29.94,10.0,NNW,3.5,-,N/A,,Overcast,340,2013-06-14 11:51:00
8:07 AM,57.2,51.8,82,29.95,10.0,NW,4.6,-,N/A,,Overcast,310,2013-06-14 12:07:00
8:51 AM,59.0,52.0,78,29.96,10.0,WNW,4.6,-,N/A,,Overcast,300,2013-06-14 12:51:00
9:06 AM,59.0,51.8,77,29.97,10.0,NNW,4.6,-,N/A,,Overcast,330,2013-06-14 13:06:00
9:19 AM,60.8,51.8,72,29.97,10.0,NW,3.5,-,N/A,,Overcast,320,2013-06-14 13:19:00
9:51 AM,61.0,53.1,75,29.98,10.0,North,3.5,-,N/A,,Mostly Cloudy,350,2013-06-14 13:51:00
10:28 AM,62.6,53.6,72,30.00,10.0,NNW,4.6,-,N/A,,Overcast,330,2013-06-14 14:28:00
10:51 AM,62.1,53.1,72,29.99,10.0,NNW,5.8,-,N/A,,Overcast,340,2013-06-14 14:51:00
11:51 AM,64.0,53.1,67,30.00,10.0,North,4.6,-,N/A,,Overcast,350,2013-06-14 15:51:00
11:58 AM,64.4,53.6,68,30.01,10.0,NNW,5.8,-,N/A,,Overcast,330,2013-06-14 15:58:00
12:09 PM,64.4,53.6,68,30.02,10.0,WNW,11.5,17.3,N/A,,Overcast,300,2013-06-14 16:09:00
12:51 PM,64.0,55.0,73,30.02,10.0,WNW,6.9,-,N/A,,Mostly Cloudy,300,2013-06-14 16:51:00
1:51 PM,64.9,55.0,70,30.02,10.0,NW,8.1,-,N/A,,Overcast,320,2013-06-14 17:51:00
2:51 PM,68.0,57.0,68,30.02,10.0,Variable,4.6,-,0.00,,Mostly Cloudy,0,2013-06-14 18:51:00
3:51 PM,69.1,55.9,63,30.02,10.0,Variable,5.8,-,N/A,,Overcast,0,2013-06-14 19:51:00
4:19 PM,66.2,55.4,68,30.03,10.0,Variable,5.8,-,N/A,,Overcast,0,2013-06-14 20:19:00
4:28 PM,66.2,55.4,68,30.02,10.0,North,8.1,-,N/A,,Mostly Cloudy,10,2013-06-14 20:28:00
4:51 PM,66.0,55.9,70,30.02,10.0,NNE,8.1,-,N/A,,Mostly Cloudy,20,2013-06-14 20:51:00
5:51 PM,66.9,55.0,66,30.02,10.0,North,5.8,-,N/A,,Mostly Cloudy,10,2013-06-14 21:51:00
6:51 PM,68.0,54.0,61,30.03,10.0,North,8.1,-,N/A,,Partly Cloudy,360,2013-06-14 22:51:00
7:51 PM,66.9,54.0,63,30.04,10.0,Calm,Calm,-,N/A,,Clear,0,2013-06-14 23:51:00
8:51 PM,60.1,54.0,80,30.06,10.0,Calm,Calm,-,N/A,,Clear,0,2013-06-15 00:51:00
9:51 PM,55.9,53.1,90,30.08,9.0,Calm,Calm,-,N/A,,Scattered Clouds,0,2013-06-15 01:51:00
10:51 PM,57.0,54.0,89,30.10,10.0,Calm,Calm,-,N/A,,Mostly Cloudy,0,2013-06-15 02:51:00
11:51 PM,54.0,52.0,93,30.12,7.0,Calm,Calm,-,N/A,,Partly Cloudy,0,2013-06-15 03:51:00